Regional Weather Roundup
Issued by NWS Kansas City/Pleasant Hill, MO

Home | Current Version | Previous Version | Graphics & Text | Print | Product List | Glossary Off
Versions: 1 2 3 4 5 6 7 8 9 10 11 12 13 14 15 16 17 18 19 20 21 22 23 24 25 26 27 28 29 30 31 32 33 34 35 36 37 38 39 40 41 42 43 44 45 46 47 48 49 50

000
ASUS43 KEAX 220211
RWREAX

WEATHER ROUNDUP FOR EASTERN KANSAS AND NORTHWEST MISSOURI
NATIONAL WEATHER SERVICE KANSAS CITY/PLEASANT HILL MO
900 PM CDT THU AUG 21 2014

KSZ040-057-103>105-MOZ028-029-037-043-220300-
...KANSAS CITY METROPOLITAN AREA...

CITY           SKY/WX    TMP DP  RH WIND       PRES   REMARKS
K.C. INTL      PTCLDY    85  72  65 S9        29.87R HX  91
K.C. DOWNTOWN  CLEAR     91  71  51 S12       29.86R HX  97
LEES SUMMIT    CLEAR     87  71  58 S10       29.90R HX  93
OLATHE - IXD   CLEAR     87  72  60 S13       29.90R HX  93
OLATHE - OJC   CLEAR     85  72  65 S9        29.89R HX  91
LAWRENCE       CLEAR     89  71  55 S12       29.87R HX  95

$$

MOZ001>008-011>017-020>025-030>033-038>040-044>046-053-054-220300-
...NORTHERN AND CENTRAL MISSOURI...

CITY           SKY/WX    TMP DP  RH WIND       PRES   REMARKS
ST. JOSEPH     CLEAR     82  76  81 S6        29.84R
MOSBY          CLEAR     86  72  62 CALM      29.87R HX  92
WHITEMAN AFB   PTCLDY    80  69  70 S8        29.90R
CLINTON        CLEAR     84  72  65 SW5       29.91R
SEDALIA        PTCLDY    85  73  67 S5        29.91R HX  91
WARSAW         NOT AVBL
MARSHALL       PTCLDY    86  77  74 S3        29.91R HX  97
CHILLICOTHE      N/A     84  77  79 S5        29.88R HX  94
MOBERLY        MOCLDY    81  73  78 SE3       29.91R
KIRKSVILLE     PTCLDY    78  75  90 S6        29.90R

$$

MOZ041-047>049-056>058-063>065-088>090-097-220300-
...EASTERN AND SOUTHERN MISSOURI...

CITY           SKY/WX    TMP DP  RH WIND       PRES   REMARKS
ST. LOUIS INTL MOCLDY    90  72  55 S9        29.93R HX  97
SPIRIT OF STL  PTCLDY    81  76  84 CALM      29.91R
COLUMBIA       MOCLDY    85  73  67 SE7       29.92R HX  91
JEFFERSON CITY PTCLDY    82  76  81 SE5       29.90R
MEXICO         PTCLDY   N/A N/A N/A CALM      29.91R
HANNIBAL       CLEAR     82  75  78 SE3       29.91R
ROLLA          CLEAR     83  69  62 S9        29.94R
LEBANON        PTCLDY    86  64  48 S12       29.98R
OSAGE BEACH    CLEAR     82  70  65 S3        29.92R
SPRINGFIELD    CLEAR     84  66  54 SW12      29.98R
BRANSON        PTCLDY    81  68  65 S8        30.03R
NEVADA         CLEAR     84  70  61 S8        29.94R
JOPLIN         CLEAR     85  70  60 S13       29.96S
WEST PLAINS    CLEAR     84  65  52 SW8       30.03R

$$

IAZ060-094-KSZ022-034>040-054-083-096-NEZ052-066-093-220300-
...KANSAS...SOUTHEAST NEBRASKA AND IOWA...

CITY           SKY/WX    TMP DP  RH WIND       PRES   REMARKS
TOPEKA         CLEAR     92  71  50 S8        29.86R HX  98
MANHATTAN      CLEAR     92  70  48 S8        29.85R HX  97
EMPORIA        CLEAR     86  67  52 S10       29.89R
CHANUTE        CLEAR     85  71  63 S13       29.93R HX  90
WICHITA        PTCLDY    89  68  49 S15       29.88R HX  93
OMAHA          PTCLDY    84  74  71 SE5       29.85R HX  91
LINCOLN        CLOUDY    84  72  67 NE6       29.85R
FALLS CITY     PTCLDY    85  79  82 NW3       29.83R HX  98
LAMONI         MOCLDY    81  76  84 SE5       29.86S
DES MOINES     PTCLDY    82  76  81 SE6       29.86R

$$



USA.gov is the U.S. government's official web portal to all federal, state and local government web resources and services.